User: anonymous   Login
Location: Delta State University
(33.7460°N, 90.7320°W)
Time: 09:38:10
(UTC-06:00)
Language:

Iridium 13 - Orbit

View from above orbital plane
View from above orbital plane
View from above satellite
View from above satellite

Ground track
Ground track

The orbit data is extracted from the following two-line orbital elements,

1 24840U 97030E   18017.22002694 +.00000138 +00000-0 +42107-4 0  9999
2 24840 086.3964 260.7056 0001635 062.8570 297.2792 14.34219099077650
Epoch (UTC): 17 January 2018 05:16:50
Eccentricity: 0.0001635
inclination: 86.3964°
perigee height: 776 km
apogee height: 779 km
right ascension of ascending node: 260.7056°
argument of perigee: 62.8570°
revolutions per day: 14.34219099
mean anomaly at epoch: 297.2792°
orbit number at epoch: 7765

The dashed part of the orbit path shows where the satellite is in the earth's shadow,  

DLR